Regional Weather Roundup
Issued by NWS Sioux Falls, SD

Home | Current Version | Previous Version | Graphics & Text | Print | Product List | Glossary On
Versions: 1 2 3 4 5 6 7 8 9 10 11 12 13 14 15 16 17 18 19 20 21 22 23 24 25 26 27 28 29 30 31 32 33 34 35 36 37 38 39 40 41 42 43 44 45 46 47 48 49 50
000
ASUS43 KFSD 240010
RWRFSD

WEATHER ROUNDUP FOR SE SOUTH DAKOTA/SW MINNESOTA/NW IOWA
NATIONAL WEATHER SERVICE SIOUX FALLS SD
700 PM CDT WED JUL 23 2014

NOTE: "FAIR" INDICATES FEW OR NO CLOUDS BELOW 12,000 FEET WITH NO
SIGNIFICANT WEATHER AND OR OBSTRUCTIONS TO VISIBILITY.


SDZ038>040-050-052>070-240100-
SOUTHEAST SOUTH DAKOTA

CITY           SKY/WX    TMP DP  RH WIND       PRES   REMARKS
CHAMBERLAIN    SUNNY     83  55  38 SE10      30.14F
6HR MIN TEMP:  79; 6HR MAX TEMP:  86;

HURON          MOSUNNY   79  55  43 E8        30.16F
6HR MIN TEMP:  78; 6HR MAX TEMP:  82;

MADISON        FAIR      75  57  53 E9        30.20F
MITCHELL       SUNNY     81  58  45 E12       30.16F
6HR MIN TEMP:  79; 6HR MAX TEMP:  83;

SIOUX FALLS    MOSUNNY   78  57  48 NE9       30.18F
6HR MIN TEMP:  76; 6HR MAX TEMP:  81;

WINNER         FAIR      86  53  32 SE14      30.14F
YANKTON        SUNNY     79  59  50 E8        30.17S
$$

MNZ071-072-080-081-089-090-097-098-240100-
SOUTHWEST MINNESOTA

CITY           SKY/WX    TMP DP  RH WIND       PRES   REMARKS
FAIRMONT       SUNNY     79  54  41 N7        30.19F
JACKSON        SUNNY     77  52  41 N7        30.21S
LUVERNE        SUNNY     79  52  38 E7        30.20S
MARSHALL       SUNNY     79  54  41 NE8       30.18F
6HR MIN TEMP:  75; 6HR MAX TEMP:  81;

MONTEVIDEO     SUNNY     79  57  47 E10       30.21S
PIPESTONE      SUNNY     79  50  36 E7        30.21F
REDWOOD FALLS  SUNNY     80  54  40 N6        30.19F
TRACY          SUNNY     78  56  47 N6        30.21F
WINDOM         SUNNY     79  52  38 N5        30.21S
WORTHINGTON    SUNNY     77  54  44 N9        30.22S
$$

IAZ001>003-012>014-020>022-031-032-NEZ013-014-SDZ071-240100-
NORTHWEST IOWA

CITY           SKY/WX    TMP DP  RH WIND       PRES   REMARKS
CHEROKEE       SUNNY     79  58  48 NE6       30.16F
DENISON        SUNNY     79  61  53 NE7       30.14F
ESTHERVILLE    SUNNY     77  57  50 N12       30.19F
LE MARS        SUNNY     79  59  50 VRB6      30.17F
ORANGE CITY    SUNNY     81  55  41 E5        30.18F
SHELDON        SUNNY     77  59  53 NE6       30.18S
SIOUX CITY     SUNNY     81  58  45 NE7       30.15F
6HR MIN TEMP:  80; 6HR MAX TEMP:  83;

SPENCER        SUNNY     80  59  48 NE7       30.18F
6HR MIN TEMP:  77; 6HR MAX TEMP:  83;

STORM LAKE     SUNNY     77  61  57 NE6       30.18F
$$

ABBREVIATIONS USED IN REMARKS
   TC - TEMPERATURE IN CELSIUS
  WCI - WIND CHILL INDEX
   HX - HEAT INDEX
  VSB - VISIBILITY




USA.gov is the U.S. government's official web portal to all federal, state and local government web resources and services.